sat.trackr.live / text

‹ back to catalog

STARLINK-4070

NORAD 52664 · 2022-053J

PAYLOAD ACTIVE UNKNOWN

§ Identity

Operator
Country
US
Launch date
2022-05-18
Launch site
AFETR
Launch vehicle
Mass (kg)
RCS (m²)

Purposes: comms

External: N2YO · Heavens-Above · Gunter

§ Orbital elements

Epoch: 2026-05-25T01:19:11.301024Z

Period
95.44 min
Inclination
53.2132°
Eccentricity
0.0001100
Mean motion
15.08836833 rev/d
Perigee alt
539.0 km
Apogee alt
540.5 km
Semi-major
6,917.9 km
B*
1.5499e-5
RAAN
171.3037°
Arg perigee
88.0078°
Mean anomaly
272.1040°
Rev number
22,257

§ Raw data

STARLINK-40701 52664U 22053J   26145.05499191 -.00000041  00000+0  15499-4 0  99982 52664  53.2132 171.3037 0001100  88.0078 272.1040 15.08836833222575

JSON: /api/v1/satellites/52664 · /tle

For live sub-satellite position, see the globe view (requires WebGL).

§ Visibility from observer

Set your observer location to see the next 7 days of passes ≥ 10°. The values pass through the URL so the page stays shareable.

No JS? Fill the form by hand. The geolocation button needs JavaScript.